Погода в Николо-Скопине

Россия / Рязанская область     53°55′26″N   39°40′33″E
В апреле 2022 года жителям России запретили посещать сайт meteo.paraplan.net по решению Генеральной прокуратуры. Аудитория сайта уменьшилась в 10 раз. Владельцы сайта не видят смысла в поддержке погодного сервера в таких условиях. Сайт будет закрыт в октябре.
темп.,
°C
ветер,
м/с
пор.,
м/с
влажн.,
%
обл.,
%
осадки,
мм/ч
давл.,
гПа
погр.,
м
4 октября, вт
вт400:00+10ююв816825 0.0 1008651
03:00+9ююв716835 0.0 1009594
06:00+9ююв716855 0.0 1010584
09:00+11ююв8167644 0.0 1010903
12:00+12ююв71476100 0.4 10121001
15:00+11ю81584100 2.2 10121050
18:00+11ю5119199 2.1 1012648
21:00+9ююз4990100 2.7 1013319
5 октября, ср
ср500:00+9ююз61281100 0.1 1013718
03:00+9ююз61184100 0.2 1013653
06:00+8ююз6118799 0.1 1013812
09:00+8ююз6985100 0.4 10131111
12:00+8юз488096 0.9 10151036
15:00+9з577782 1.1 1015850
18:00+7з478995 1.1 1016556
21:00+6з4888100 1.4 1017737
6 октября, чт
чт600:00+6з5988100 0.3 1018520
03:00+6зсз3788100 0.6 1018747
06:00+6з379499 0.2 1018261
09:00+8зсз468664 0.4 1019602
12:00+11зсз466524 0.1 10191145
15:00+10з457299 0.1 1019802
18:00+9юз3589100 0.0 1020253
21:00+9ююз3794100 0.0 1020226
7 октября, пт
пт700:00+9юз499462 0.0 1019288
03:00+8юз4109569 0.0 1018234
06:00+8зюз511945 0.0 1018261
09:00+11зсз6108849 0.0 1019421
12:00+14зсз69670 0.0 1021871
15:00+15сз69616 0.0 10221189
18:00+10сз37800 0.0 1024142
21:00+9з35860 0.0 102696
8 октября, сб
сб800:00+8з37920 0.0 1027133
03:00+7з33940 0.0 102754
06:00+6зюз33942 0.0 102752
09:00+9зюз35800 0.0 1027237
12:00+13юз45613 0.0 1026646
15:00+14юз45575 0.0 1024841
18:00+11ююз35775 0.0 102370
21:00+9ююз498547 0.0 1023152